User: anonymous   Login
Location: Unspecified
(0.0000°N, 0.0000°E)
Time: 17:50:51
(UTC+00:00)
Language:

ISIS 1 - Orbit

View from above orbital plane
View from above orbital plane
View from above satellite
View from above satellite

Ground track
Ground track

The orbit is defined by the following mean orbital elements,

1 03669U          26106.06595654 +.00000000 +00000-0 +48612-4 0 00007
2 03669  88.4466 151.2240 1707419  13.7544 350.4536 11.30422881    06
Epoch (UTC): 16 April 2026 01:34:58
Eccentricity: 0.1707419
inclination: 88.4466°
perigee height: 576 km
apogee height: 3440 km
right ascension of ascending node: 151.2240°
argument of perigee: 13.7544°
revolutions per day: 11.30422881
mean anomaly at epoch: 350.4536°

The dashed part of the orbit path shows where the satellite is in the earth's shadow,  

DLR